sat.trackr.live / text

‹ back to catalog

STARLINK-4190

NORAD 53001 · 2022-076R

PAYLOAD ACTIVE UNKNOWN

§ Identity

Operator
Country
US
Launch date
2022-07-07
Launch site
AFETR
Launch vehicle
Mass (kg)
RCS (m²)

Purposes: comms

External: N2YO · Heavens-Above · Gunter

§ Orbital elements

Epoch: 2026-05-25T04:16:42.274848Z

Period
95.44 min
Inclination
53.2122°
Eccentricity
0.0001502
Mean motion
15.08841441 rev/d
Perigee alt
538.7 km
Apogee alt
540.8 km
Semi-major
6,917.9 km
B*
5.4699e-5
RAAN
110.7485°
Arg perigee
80.7492°
Mean anomaly
279.3670°
Rev number
21,439

§ Raw data

STARLINK-41901 53001U 22076R   26145.17826707  .00000583  00000+0  54699-4 0  99942 53001  53.2122 110.7485 0001502  80.7492 279.3670 15.08841441214399

JSON: /api/v1/satellites/53001 · /tle

For live sub-satellite position, see the globe view (requires WebGL).

§ Visibility from observer

Set your observer location to see the next 7 days of passes ≥ 10°. The values pass through the URL so the page stays shareable.

No JS? Fill the form by hand. The geolocation button needs JavaScript.